GPS BIIRM-6 (PRN 07)

Last updated on Tue Jul 01 2025 00:03:13 GMT+0000 (Coordinated Universal Time)

1 32711U 08012A 25181.14485940 .00000056 00000+0 00000+0 0 9996 2 32711 54.4660 163.9807 0199845 243.5307 114.3865 2.00559055126698
UTC large
Height (km)
Speed (km/s)
/
Latitude / Longitude
Inclination (degrees)
Orbital Period (minutes)
Azimuth
Elevation
Range (km)
Doppler Factor

Next 0 passes for location: London (51.5072 / 0.1276)

Sorry there are no passes over London.